sat.trackr.live / text

‹ back to catalog

STARLINK-3706

NORAD 52105 · 2022-029T

PAYLOAD ACTIVE UNKNOWN

§ Identity

Operator
Country
US
Launch date
2022-03-19
Launch site
AFETR
Launch vehicle
Mass (kg)
RCS (m²)

Purposes: comms

External: N2YO · Heavens-Above · Gunter

§ Orbital elements

Epoch: 2026-09-19T17:51:03.456000Z

Period
93.85 min
Inclination
53.1593°
Eccentricity
0.0001310
Mean motion
15.34388257 rev/d
Perigee alt
461.8 km
Apogee alt
463.6 km
Semi-major
6,840.9 km
B*
1.8325e-5
RAAN
272.9049°
Arg perigee
87.9898°
Mean anomaly
272.1255°
Rev number
25,028

§ Raw data

STARLINK-37061 52105U 22029T   26262.74379000  .00000243  00000+0  18325-4 0  99972 52105  53.1593 272.9049 0001310  87.9898 272.1255 15.34388257250285

JSON: /api/v1/satellites/52105 · /tle

For live sub-satellite position, see the globe view (requires WebGL).

§ Visibility from observer

Set your observer location to see the next 7 days of passes ≥ 10°. The values pass through the URL so the page stays shareable.

No JS? Fill the form by hand. The geolocation button needs JavaScript.